Location: Catacaguana
(10.4120°N, 66.7591°W)
Time: 04:09:18
(UTC+00:00)

USA 238 DEB - Pass Details

Date: 27 May 2022
Orbit: 969 x 1243 km, 63.4° (Epoch: 04 May)

Event Time Altitude Azimuth Distance (km) Brightness Sun altitude
Rises 01:02:18 0° 343° (NNW) 4,089 7.4 -31.2°
Reaches altitude 10° 01:05:04 10° 346° (NNW) 3,152 6.7 -31.8°
Enters shadow 01:11:41 57° 36° (NE) 1,423 4.2 -33.1°
